^^
Meteo Knjazevac Station Historical Data
Daily Summary for April 5, 2021 Units:  Metric    English   Both
Daily Weekly Monthly Yearly Custom
  High: Low: Average:
Temperature: 2.1 °C 1.4 °C 1.9 °C
Dew Point: 1.9 °C 1.1 °C 1.7 °C
Humidity: 99% 96% 99%
Wind Speed: 4.8km/h 0km/h 2.1km/h
Wind Gust: 8km/h - -
Wind- - WSW
Pressure: 1011.4 hPa 1010.7 hPa -
Precipitation: 0 mm    
Historical Graphs
 
 
Tabular Data for April 5, 2021
Time Temperature Dew Point Pressure Wind Wind Speed Wind Gust Humidity Rainfall Rate (Hourly) solar Conditions
00:00 1.6 °C 1.1 °C 1011.4 hPa NNW 1.6 km/h 3.2 km/h 96% 0 mm 0 W/m2
00:10 1.6 °C 1.3 °C 1011.4 hPa West 1.6 km/h 3.2 km/h 98% 0 mm 0 W/m2
00:20 1.6 °C 1.3 °C 1011.4 hPa WNW 1.6 km/h 3.2 km/h 98% 0 mm 0 W/m2
00:30 1.7 °C 1.4 °C 1011.4 hPa WNW 1.6 km/h 3.2 km/h 98% 0 mm 0 W/m2
00:40 1.7 °C 1.4 °C 1011.1 hPa WNW 3.2 km/h 4.8 km/h 98% 0 mm 0 W/m2
00:50 1.8 °C 1.5 °C 1011.1 hPa WNW 1.6 km/h 4.8 km/h 98% 0 mm 0 W/m2
01:00 1.8 °C 1.5 °C 1011.1 hPa WNW 1.6 km/h 4.8 km/h 98% 0 mm 0 W/m2
01:10 1.9 °C 1.8 °C 1011.4 hPa WNW 3.2 km/h 4.8 km/h 99% 0 mm 0 W/m2
01:20 1.9 °C 1.8 °C 1011.1 hPa Calm   3.2 km/h 99% 0 mm 0 W/m2
01:30 1.9 °C 1.8 °C 1011.1 hPa WNW 1.6 km/h 3.2 km/h 99% 0 mm 0 W/m2
01:40 1.9 °C 1.8 °C 1011.4 hPa WSW 3.2 km/h 4.8 km/h 99% 0 mm 0 W/m2
01:50 2 °C 1.8 °C 1011.4 hPa WNW 1.6 km/h 4.8 km/h 99% 0 mm 0 W/m2
02:00 2 °C 1.8 °C 1011.4 hPa West 1.6 km/h 4.8 km/h 99% 0 mm 0 W/m2
02:10 2 °C 1.8 °C 1011.4 hPa West 1.6 km/h 3.2 km/h 99% 0 mm 0 W/m2
02:20 2 °C 1.8 °C 1011.4 hPa SSW 1.6 km/h 3.2 km/h 99% 0 mm 0 W/m2
02:30 2 °C 1.8 °C 1011.1 hPa SSW 1.6 km/h 3.2 km/h 99% 0 mm 0 W/m2
02:40 2.1 °C 1.9 °C 1011.1 hPa SSW 1.6 km/h 3.2 km/h 99% 0 mm 0 W/m2
02:50 2.1 °C 1.9 °C 1011.1 hPa WSW 1.6 km/h 4.8 km/h 99% 0 mm 0 W/m2
03:00 2.1 °C 1.9 °C 1011.1 hPa WNW 1.6 km/h 4.8 km/h 99% 0 mm 0 W/m2
03:10 2.1 °C 1.9 °C 1011.1 hPa WNW 3.2 km/h 4.8 km/h 99% 0 mm 0 W/m2
03:20 2.1 °C 1.9 °C 1011.1 hPa WNW 1.6 km/h 3.2 km/h 99% 0 mm 0 W/m2
03:30 2.1 °C 1.9 °C 1010.7 hPa Calm   3.2 km/h 99% 0 mm 0 W/m2
03:40 2.1 °C 1.9 °C 1010.7 hPa SW 1.6 km/h 4.8 km/h 99% 0 mm 0 W/m2
03:50 2.1 °C 1.9 °C 1010.7 hPa WSW 1.6 km/h 3.2 km/h 99% 0 mm 0 W/m2
04:00 2.1 °C 1.9 °C 1010.7 hPa WNW 1.6 km/h 4.8 km/h 99% 0 mm 0 W/m2
04:10 2.1 °C 1.9 °C 1010.7 hPa WSW 1.6 km/h 4.8 km/h 99% 0 mm 0 W/m2
04:20 2.1 °C 1.9 °C 1010.7 hPa West 1.6 km/h 4.8 km/h 99% 0 mm 0 W/m2
04:30 2.1 °C 1.9 °C 1010.7 hPa West 1.6 km/h 4.8 km/h 99% 0 mm 0 W/m2
04:40 2 °C 1.8 °C 1010.7 hPa SSW 1.6 km/h 3.2 km/h 99% 0 mm 0 W/m2
04:50 1.9 °C 1.8 °C 1010.7 hPa SSW 3.2 km/h 8 km/h 99% 0 mm 0 W/m2
05:00 1.9 °C 1.8 °C 1010.7 hPa South 3.2 km/h 8 km/h 99% 0 mm 0 W/m2
05:10 1.8 °C 1.7 °C 1010.7 hPa SSW 3.2 km/h 6.4 km/h 99% 0 mm 0 W/m2
05:20 1.8 °C 1.7 °C 1010.7 hPa SSW 3.2 km/h 6.4 km/h 99% 0 mm 0 W/m2
05:30 1.8 °C 1.7 °C 1010.7 hPa WSW 1.6 km/h 8 km/h 99% 0 mm 0 W/m2
05:40 1.8 °C 1.7 °C 1011.1 hPa SW 3.2 km/h 6.4 km/h 99% 0 mm 0 W/m2
05:50 1.7 °C 1.6 °C 1011.1 hPa SSW 3.2 km/h 4.8 km/h 99% 0 mm 0 W/m2
06:00 1.6 °C 1.4 °C 1011.1 hPa SSW 3.2 km/h 8 km/h 99% 0 mm 0 W/m2
06:10 1.6 °C 1.4 °C 1010.7 hPa South 1.6 km/h 8 km/h 99% 0 mm 0 W/m2
06:20 1.5 °C 1.3 °C 1010.7 hPa SSW 3.2 km/h 8 km/h 99% 0 mm 0 W/m2
06:30 1.5 °C 1.3 °C 1011.1 hPa WSW 1.6 km/h 4.8 km/h 99% 0 mm 0 W/m2
06:40 1.4 °C 1.3 °C 1011.1 hPa SW 4.8 km/h 8 km/h 99% 0 mm 0 W/m2
Knjazevac, Serbia
Compliments of Weather Underground - 2 mb